Location: George Washington National Forest Helicopter Landing Site
(38.6463°N, 79.0851°W)
Time: 19:46:19
(UTC-04:00)

Tiros 1 despin weight - Pass Details

Date: 20 August 2019
Orbit: 594 x 642 km, 48.2° (Epoch: 17 September)

Event Time Altitude Azimuth Distance (km) Brightness Sun altitude
Rises 00:32:44 0° 213° (SSW) 2,818 - -37.6°
Reaches altitude 10° 00:35:08 10° 204° (SSW) 1,924 - -37.8°
Maximum altitude 00:39:10 36° 138° (SE) 961 - -37.9°
Drops below altitude 10° 00:43:16 10° 72° (ENE) 1,955 - -38.1°
Sets 00:45:43 0° 64° (ENE) 2,871 - -38.2°
